Regional Weather Roundup
Issued by NWS

Home | Current Version | Previous Version | Text Only | Print | Product List | Glossary Off
Versions: 1 2 3 4 5 6 7 8 9 10 11 12 13 14 15 16 17 18 19 20 21 22 23 24 25 26 27 28 29 30 31 32 33 34 35 36 37 38 39 40 41 42 43 44 45 46 47 48 49 50

000
ASUS43 KBIS 251110
RWRND

NORTH DAKOTA REGIONAL WEATHER ROUNDUP
NATIONAL WEATHER SERVICE BISMARCK ND
600 AM CDT SAT APR 25 2015

NOTE: "FAIR" INDICATES FEW OR NO CLOUDS BELOW 12,000 FEET WITH NO
SIGNIFICANT WEATHER AND/OR OBSTRUCTIONS TO VISIBILITY.


NDZ001>003-009>011-017-251200-
NORTHWEST NORTH DAKOTA

CITY           SKY/WX    TMP DP  RH WIND       PRES   REMARKS
WILLISTON      MOCLDY    47  40  76 E8        29.70R
MINOT          FOG       33  32  96 E5        29.78R VSB 1/4
MINOT AFB      FOG       32  32 100 SE7       29.78R VSB 1
$$

NDZ018>021-031>035-040>046-251200-
SOUTHWEST NORTH DAKOTA

CITY           SKY/WX    TMP DP  RH WIND       PRES   REMARKS
BISMARCK       CLOUDY    44  41  89 E7        29.76R
DICKINSON      FOG       42  41  96 SE12      29.70R VSB 1/4
GARRISON         N/A     42  40  92 E7        29.76R
HETTINGER ARPT FOG       42  40  92 E10       29.71S VSB 1/4
$$

NDZ004>008-012>016-024-026-027-054-251200-
NORTHEAST NORTH DAKOTA

CITY           SKY/WX    TMP DP  RH WIND       PRES   REMARKS
GRAND FORKS    CLOUDY    44  32  62 E10       29.85S
GRND FRKS AFB  CLOUDY    42  32  66 E8        29.84S
DEVILS LAKE    CLOUDY    43  36  75 E8        29.82R
$$

NDZ022-023-025-028>030-036>039-047>053-251200-
SOUTHEAST NORTH DAKOTA

CITY           SKY/WX    TMP DP  RH WIND       PRES   REMARKS
FARGO          CLOUDY    43  36  76 E9        29.81R
JAMESTOWN      CLOUDY    42  39  89 E14       29.78S FOG
$$




USA.gov is the U.S. government's official web portal to all federal, state and local government web resources and services.